View from above orbital plane
|
View from above satellite
|
Ground track
|
The orbit data is extracted from the following two-line orbital elements,
1 39026U 12072A 21055.40106878 .00003155 00000-0 11020-3 0 9990
2 39026 97.2386 51.1004 0038003 68.4827 292.0458 15.29615919455740
Epoch (UTC): | 24 February 2021 09:37:32 |
Eccentricity: | 0.0038003 |
inclination: | 97.2386° |
perigee height: | 451 km |
apogee height: | 503 km |
right ascension of ascending node: | 51.1004° |
argument of perigee: | 68.4827° |
revolutions per day: | 15.29615919 |
mean anomaly at epoch: | 292.0458° |
orbit number at epoch: | 45574 |
The dashed part of the orbit path shows where the satellite is in the earth's shadow,
|
|